JT2202 WALL-WADD

Flight info

Callsign JT2202
Flight time 1h 15m
Altitude 36000
Route DADBI DCT ISRUL W46 MALGI
Aircraft B739/M-SDE2E3FGHIRWXY/LB1

Departure

Time 2026-04-29 21:19
Airport Sultan Aji Muhammad Sulaiman Sepinggan International Airport (WALL)

Arrival

Time 2026-04-29 22:34
Airport Denpasar I Gusti Ngurah Rai International Airport (WADD)
Time Latitude Longitude Altitude Speed Heading
2026-04-29 20:54 -1.26364 116.89740 33 ft 0 kts 335°
2026-04-29 21:08 -1.26364 116.89741 33 ft 0 kts 335°
2026-04-29 21:08 -1.26378 116.89747 33 ft 2 kts 335°
2026-04-29 21:08 -1.26387 116.89751 33 ft 1 kts 335°
2026-04-29 21:09 -1.26398 116.89758 32 ft 1 kts 315°
2026-04-29 21:09 -1.26407 116.89768 32 ft 1 kts 299°
2026-04-29 21:09 -1.26412 116.89781 32 ft 2 kts 281°
2026-04-29 21:09 -1.26413 116.89796 33 ft 2 kts 262°
2026-04-29 21:10 -1.26411 116.89805 33 ft 0 kts 249°
2026-04-29 21:10 -1.26408 116.89812 33 ft 0 kts 246°
2026-04-29 21:10 -1.26408 116.89811 33 ft 0 kts 246°
2026-04-29 21:12 -1.26408 116.89810 33 ft 0 kts 246°
2026-04-29 21:13 -1.26408 116.89809 33 ft 0 kts 246°
2026-04-29 21:14 -1.26411 116.89803 33 ft 1 kts 246°
2026-04-29 21:14 -1.26428 116.89781 32 ft 5 kts 211°
2026-04-29 21:15 -1.26461 116.89774 31 ft 5 kts 172°
2026-04-29 21:15 -1.26496 116.89777 31 ft 4 kts 196°
2026-04-29 21:15 -1.26522 116.89755 30 ft 5 kts 233°
2026-04-29 21:15 -1.26548 116.89699 29 ft 10 kts 251°
2026-04-29 21:16 -1.26574 116.89633 29 ft 9 kts 247°
2026-04-29 21:16 -1.26599 116.89575 28 ft 10 kts 247°
2026-04-29 21:16 -1.26646 116.89461 28 ft 24 kts 247°
2026-04-29 21:16 -1.26709 116.89311 29 ft 22 kts 247°
2026-04-29 21:17 -1.26766 116.89175 31 ft 19 kts 248°
2026-04-29 21:17 -1.26813 116.89066 34 ft 15 kts 247°
2026-04-29 21:17 -1.26851 116.88975 37 ft 12 kts 246°
2026-04-29 21:17 -1.26874 116.88936 38 ft 6 kts 229°
2026-04-29 21:18 -1.26923 116.88921 37 ft 7 kts 163°
2026-04-29 21:18 -1.26981 116.88943 34 ft 9 kts 162°
2026-04-29 21:18 -1.27016 116.88956 33 ft 4 kts 143°
2026-04-29 21:18 -1.27024 116.89005 32 ft 11 kts 70°
2026-04-29 21:19 -1.27008 116.89044 31 ft 14 kts 66°
2026-04-29 21:19 -1.26848 116.89415 25 ft 99 kts 67°
2026-04-29 21:19 -1.26475 116.90294 30 ft 170 kts 65°
2026-04-29 21:19 -1.26080 116.91355 895 ft 164 kts 70°
2026-04-29 21:20 -1.25682 116.92410 1695 ft 164 kts 62°
2026-04-29 21:20 -1.25165 116.93425 2213 ft 173 kts 62°
2026-04-29 21:20 -1.24641 116.94567 2690 ft 187 kts 65°
2026-04-29 21:20 -1.24173 116.95839 3103 ft 208 kts 75°
2026-04-29 21:21 -1.24247 116.97330 3685 ft 225 kts 107°
2026-04-29 21:21 -1.25079 116.98689 4326 ft 240 kts 129°
2026-04-29 21:21 -1.26459 116.99719 4820 ft 262 kts 150°
2026-04-29 21:21 -1.28213 117.00475 5012 ft 278 kts 156°
2026-04-29 21:22 -1.30062 117.01175 4997 ft 284 kts 157°
2026-04-29 21:22 -1.31899 117.01887 4989 ft 283 kts 156°
2026-04-29 21:22 -1.33737 117.02634 4989 ft 282 kts 155°
2026-04-29 21:22 -1.35545 117.03389 4982 ft 282 kts 154°
2026-04-29 21:23 -1.37374 117.04162 4982 ft 282 kts 154°
2026-04-29 21:23 -1.39180 117.04927 4985 ft 282 kts 154°
2026-04-29 21:23 -1.41005 117.05698 4986 ft 283 kts 154°
2026-04-29 21:23 -1.42826 117.06467 4983 ft 283 kts 154°
2026-04-29 21:24 -1.44643 117.07220 4979 ft 283 kts 157°
2026-04-29 21:24 -1.46562 117.07702 4987 ft 289 kts 175°
2026-04-29 21:24 -1.48618 117.07526 5679 ft 296 kts 190°
2026-04-29 21:24 -1.50621 117.07116 6693 ft 292 kts 191°
2026-04-29 21:25 -1.52622 117.06705 7438 ft 297 kts 190°
2026-04-29 21:25 -1.54641 117.06321 8235 ft 299 kts 189°
2026-04-29 21:25 -1.56706 117.05955 8981 ft 302 kts 188°
2026-04-29 21:25 -1.58739 117.05608 9693 ft 306 kts 188°
2026-04-29 21:26 -1.60817 117.05258 10393 ft 310 kts 188°
2026-04-29 21:26 -1.63028 117.04888 10853 ft 323 kts 188°
2026-04-29 21:26 -1.65314 117.04504 11279 ft 337 kts 188°
2026-04-29 21:26 -1.67651 117.04109 11951 ft 341 kts 188°
2026-04-29 21:27 -1.69997 117.03711 12666 ft 343 kts 188°
2026-04-29 21:27 -1.72377 117.03306 13354 ft 346 kts 188°
2026-04-29 21:27 -1.74770 117.02900 14011 ft 349 kts 188°
2026-04-29 21:27 -1.77156 117.02495 14640 ft 352 kts 188°
2026-04-29 21:28 -1.79606 117.02080 15272 ft 355 kts 188°
2026-04-29 21:28 -1.82021 117.01671 15883 ft 357 kts 187°
2026-04-29 21:28 -1.84482 117.01254 16487 ft 360 kts 187°
2026-04-29 21:28 -1.86975 117.00832 17083 ft 362 kts 187°
2026-04-29 21:29 -1.89462 117.00410 17641 ft 365 kts 187°
2026-04-29 21:29 -1.91993 116.99981 18157 ft 369 kts 187°
2026-04-29 21:29 -1.94546 116.99549 18672 ft 373 kts 187°
2026-04-29 21:29 -1.97105 116.99116 19166 ft 376 kts 187°
2026-04-29 21:30 -1.99712 116.98676 19663 ft 380 kts 187°
2026-04-29 21:30 -2.02332 116.98231 20138 ft 383 kts 187°
2026-04-29 21:30 -2.04997 116.97780 20615 ft 387 kts 187°
2026-04-29 21:30 -2.07676 116.97326 21058 ft 390 kts 187°
2026-04-29 21:31 -2.10361 116.96871 21499 ft 394 kts 187°
2026-04-29 21:31 -2.13069 116.96412 21928 ft 397 kts 187°
2026-04-29 21:31 -2.15842 116.95943 22383 ft 400 kts 187°
2026-04-29 21:31 -2.18597 116.95476 22805 ft 403 kts 187°
2026-04-29 21:32 -2.21372 116.95007 23250 ft 405 kts 187°
2026-04-29 21:32 -2.24170 116.94533 23659 ft 409 kts 187°
2026-04-29 21:32 -2.26994 116.94054 24069 ft 411 kts 187°
2026-04-29 21:32 -2.29808 116.93576 24472 ft 414 kts 187°
2026-04-29 21:33 -2.32694 116.93086 24909 ft 416 kts 187°
2026-04-29 21:33 -2.35551 116.92602 25275 ft 419 kts 187°
2026-04-29 21:33 -2.38462 116.92109 25626 ft 423 kts 187°
2026-04-29 21:33 -2.41374 116.91615 26030 ft 425 kts 187°
2026-04-29 21:34 -2.44297 116.91120 26363 ft 428 kts 188°
2026-04-29 21:34 -2.47254 116.90619 26760 ft 430 kts 187°
2026-04-29 21:34 -2.50223 116.90115 27119 ft 432 kts 188°
2026-04-29 21:34 -2.53184 116.89613 27455 ft 434 kts 188°
2026-04-29 21:35 -2.56161 116.89107 27819 ft 436 kts 187°
2026-04-29 21:35 -2.59164 116.88597 28156 ft 438 kts 187°
2026-04-29 21:35 -2.62198 116.88083 28470 ft 441 kts 187°
2026-04-29 21:35 -2.65229 116.87569 28789 ft 443 kts 187°
2026-04-29 21:36 -2.68292 116.87049 29142 ft 445 kts 187°
2026-04-29 21:36 -2.71354 116.86529 29411 ft 448 kts 187°
2026-04-29 21:36 -2.74431 116.86006 29737 ft 450 kts 187°
2026-04-29 21:36 -2.77545 116.85436 29999 ft 454 kts 191°
2026-04-29 21:37 -2.80599 116.84594 30295 ft 458 kts 197°
2026-04-29 21:37 -2.83598 116.83413 30582 ft 461 kts 203°
2026-04-29 21:37 -2.86460 116.81916 30872 ft 465 kts 210°
2026-04-29 21:37 -2.89139 116.80135 31166 ft 467 kts 216°
2026-04-29 21:38 -2.91680 116.78065 31469 ft 469 kts 220°
2026-04-29 21:38 -2.94098 116.75879 31721 ft 472 kts 222°
2026-04-29 21:38 -2.96538 116.73619 31984 ft 474 kts 222°
2026-04-29 21:38 -2.98967 116.71407 32238 ft 477 kts 221°
2026-04-29 21:39 -3.01454 116.69187 32472 ft 479 kts 221°
2026-04-29 21:39 -3.03933 116.66936 32782 ft 481 kts 221°
2026-04-29 21:39 -3.06482 116.64751 33050 ft 482 kts 218°
2026-04-29 21:39 -3.09211 116.62795 33469 ft 480 kts 212°
2026-04-29 21:40 -3.12101 116.61145 33954 ft 476 kts 205°
2026-04-29 21:40 -3.15096 116.59783 34434 ft 473 kts 201°
2026-04-29 21:40 -3.18197 116.58564 34760 ft 473 kts 199°
2026-04-29 21:40 -3.21249 116.57438 35171 ft 471 kts 199°
2026-04-29 21:41 -3.24374 116.56294 35535 ft 470 kts 199°
2026-04-29 21:41 -3.27407 116.55164 35835 ft 470 kts 200°
2026-04-29 21:41 -3.30502 116.53979 35860 ft 473 kts 200°
2026-04-29 21:42 -3.36612 116.51556 35863 ft 469 kts 201°
2026-04-29 21:42 -3.42646 116.49099 35857 ft 469 kts 201°
2026-04-29 21:43 -3.48717 116.46602 35854 ft 470 kts 201°
2026-04-29 21:43 -3.54775 116.44101 35854 ft 469 kts 201°
2026-04-29 21:44 -3.60855 116.41589 35848 ft 468 kts 201°
2026-04-29 21:44 -3.66896 116.39093 35853 ft 468 kts 201°
2026-04-29 21:45 -3.72908 116.36611 35855 ft 468 kts 201°
2026-04-29 21:45 -3.79070 116.34390 35859 ft 468 kts 195°
2026-04-29 21:46 -3.85391 116.32782 35863 ft 467 kts 192°
2026-04-29 21:46 -3.91731 116.31358 35863 ft 467 kts 191°
2026-04-29 21:47 -3.98100 116.29925 35864 ft 466 kts 192°
2026-04-29 21:47 -4.04432 116.28464 35863 ft 465 kts 192°
2026-04-29 21:48 -4.10746 116.26987 35862 ft 466 kts 192°
2026-04-29 21:48 -4.17070 116.25494 35862 ft 467 kts 192°
2026-04-29 21:49 -4.23410 116.23994 35863 ft 466 kts 192°
2026-04-29 21:49 -4.29738 116.22494 35863 ft 466 kts 192°
2026-04-29 21:50 -4.36038 116.21000 35864 ft 464 kts 192°
2026-04-29 21:50 -4.42375 116.19498 35862 ft 465 kts 192°
2026-04-29 21:51 -4.48671 116.18005 35863 ft 466 kts 192°
2026-04-29 21:51 -4.58166 116.15753 35863 ft 466 kts 192°
2026-04-29 21:52 -4.64494 116.14252 35863 ft 467 kts 192°
2026-04-29 21:52 -4.70813 116.12753 35862 ft 464 kts 192°
2026-04-29 21:53 -4.77116 116.11258 35863 ft 464 kts 192°
2026-04-29 21:53 -4.83429 116.09759 35864 ft 466 kts 192°
2026-04-29 21:54 -4.89752 116.08258 35863 ft 466 kts 192°
2026-04-29 21:54 -4.96070 116.06758 35865 ft 466 kts 192°
2026-04-29 21:55 -5.02401 116.05257 35863 ft 466 kts 192°
2026-04-29 21:55 -5.08725 116.03756 35863 ft 465 kts 192°
2026-04-29 21:56 -5.15021 116.02261 35863 ft 465 kts 192°
2026-04-29 21:56 -5.21328 116.00764 35864 ft 466 kts 192°
2026-04-29 21:57 -5.27665 115.99260 35860 ft 467 kts 192°
2026-04-29 21:57 -5.34028 115.97749 35853 ft 467 kts 192°
2026-04-29 21:58 -5.40347 115.96247 35848 ft 467 kts 192°
2026-04-29 21:58 -5.46683 115.94742 35851 ft 466 kts 192°
2026-04-29 21:59 -5.53011 115.93239 35853 ft 465 kts 192°
2026-04-29 21:59 -5.59310 115.91743 35855 ft 465 kts 193°
2026-04-29 22:00 -5.65627 115.90241 35855 ft 466 kts 193°
2026-04-29 22:00 -5.71983 115.88731 35856 ft 466 kts 193°
2026-04-29 22:01 -5.78317 115.87225 35860 ft 467 kts 193°
2026-04-29 22:01 -5.84635 115.85722 35860 ft 466 kts 193°
2026-04-29 22:02 -5.90963 115.84216 35860 ft 465 kts 193°
2026-04-29 22:02 -5.97265 115.82716 35863 ft 466 kts 193°
2026-04-29 22:03 -6.03590 115.81211 35864 ft 466 kts 193°
2026-04-29 22:03 -6.09925 115.79702 35864 ft 467 kts 193°
2026-04-29 22:04 -6.16286 115.78187 35863 ft 466 kts 193°
2026-04-29 22:04 -6.22613 115.76677 35864 ft 466 kts 193°
2026-04-29 22:05 -6.28960 115.75164 35863 ft 467 kts 193°
2026-04-29 22:06 -6.38446 115.72903 35864 ft 467 kts 193°
2026-04-29 22:06 -6.44788 115.71392 35864 ft 466 kts 193°
2026-04-29 22:07 -6.51078 115.69892 35864 ft 466 kts 193°
2026-04-29 22:07 -6.57410 115.68382 35864 ft 467 kts 193°
2026-04-29 22:08 -6.63758 115.66869 35864 ft 466 kts 193°
2026-04-29 22:08 -6.70107 115.65353 35864 ft 467 kts 193°
2026-04-29 22:09 -6.76418 115.63845 35862 ft 466 kts 193°
2026-04-29 22:09 -6.82720 115.62341 35861 ft 466 kts 193°
2026-04-29 22:10 -6.89057 115.60860 35790 ft 465 kts 190°
2026-04-29 22:10 -6.92265 115.60434 35310 ft 463 kts 184°
2026-04-29 22:10 -6.95504 115.60283 34503 ft 465 kts 180°
2026-04-29 22:10 -6.98748 115.60271 33748 ft 465 kts 179°
2026-04-29 22:11 -7.01969 115.60304 33233 ft 461 kts 179°
2026-04-29 22:11 -7.05170 115.60334 32682 ft 457 kts 179°
2026-04-29 22:11 -7.08349 115.60342 32151 ft 454 kts 179°
2026-04-29 22:11 -7.11500 115.60323 31597 ft 452 kts 180°
2026-04-29 22:12 -7.14627 115.60281 31037 ft 449 kts 180°
2026-04-29 22:12 -7.17769 115.60223 30463 ft 447 kts 180°
2026-04-29 22:12 -7.20866 115.60152 29899 ft 445 kts 180°
2026-04-29 22:12 -7.23945 115.60073 29336 ft 443 kts 180°
2026-04-29 22:13 -7.27052 115.59988 28767 ft 441 kts 180°
2026-04-29 22:13 -7.30132 115.59901 28201 ft 438 kts 180°
2026-04-29 22:13 -7.33124 115.59815 27652 ft 430 kts 180°
2026-04-29 22:13 -7.36111 115.59729 27100 ft 423 kts 180°
2026-04-29 22:14 -7.39028 115.59645 26555 ft 415 kts 180°
2026-04-29 22:14 -7.41887 115.59563 26020 ft 408 kts 179°
2026-04-29 22:14 -7.44702 115.59481 25488 ft 402 kts 179°
2026-04-29 22:14 -7.47507 115.59400 24957 ft 395 kts 179°
2026-04-29 22:15 -7.50231 115.59322 24439 ft 389 kts 179°
2026-04-29 22:15 -7.52925 115.59244 23930 ft 382 kts 179°
2026-04-29 22:15 -7.55561 115.59181 23433 ft 378 kts 178°
2026-04-29 22:15 -7.58210 115.59235 22972 ft 378 kts 173°
2026-04-29 22:16 -7.60802 115.59554 22886 ft 374 kts 167°
2026-04-29 22:16 -7.63345 115.60060 22876 ft 378 kts 165°
2026-04-29 22:16 -7.65946 115.60662 22874 ft 379 kts 164°
2026-04-29 22:16 -7.68518 115.61283 22874 ft 378 kts 163°
2026-04-29 22:17 -7.71063 115.61900 22874 ft 377 kts 163°
2026-04-29 22:17 -7.73622 115.62515 22878 ft 380 kts 164°
2026-04-29 22:17 -7.76219 115.63129 22868 ft 377 kts 164°
2026-04-29 22:17 -7.78750 115.63721 22866 ft 376 kts 164°
2026-04-29 22:18 -7.81317 115.64319 22863 ft 376 kts 165°
2026-04-29 22:18 -7.83904 115.64919 22863 ft 377 kts 165°
2026-04-29 22:18 -7.86441 115.65507 22863 ft 377 kts 164°
2026-04-29 22:18 -7.89011 115.66101 22863 ft 378 kts 165°
2026-04-29 22:19 -7.91571 115.66692 22863 ft 378 kts 165°
2026-04-29 22:19 -7.94174 115.67293 22861 ft 378 kts 164°
2026-04-29 22:19 -7.96714 115.67894 22649 ft 374 kts 163°
2026-04-29 22:19 -7.99227 115.68634 22080 ft 374 kts 158°
2026-04-29 22:20 -8.01606 115.69599 21696 ft 368 kts 153°
2026-04-29 22:20 -8.03927 115.70705 21266 ft 365 kts 151°
2026-04-29 22:20 -8.06173 115.71847 20814 ft 363 kts 150°
2026-04-29 22:20 -8.08438 115.73020 20334 ft 363 kts 150°
2026-04-29 22:21 -8.10681 115.74178 19916 ft 360 kts 151°
2026-04-29 22:21 -8.12907 115.75317 19462 ft 359 kts 151°
2026-04-29 22:21 -8.15130 115.76447 19038 ft 356 kts 151°
2026-04-29 22:21 -8.17340 115.77565 18592 ft 355 kts 151°
2026-04-29 22:22 -8.19568 115.78690 18162 ft 353 kts 151°
2026-04-29 22:22 -8.21755 115.79795 17708 ft 352 kts 152°
2026-04-29 22:22 -8.23924 115.80888 17251 ft 350 kts 152°
2026-04-29 22:22 -8.26166 115.81879 16687 ft 348 kts 160°
2026-04-29 22:23 -8.28544 115.82310 16105 ft 349 kts 180°
2026-04-29 22:23 -8.30900 115.81839 15545 ft 348 kts 201°
2026-04-29 22:23 -8.32977 115.80607 14988 ft 347 kts 218°
2026-04-29 22:23 -8.34700 115.78938 14432 ft 345 kts 228°
2026-04-29 22:24 -8.36190 115.77010 13894 ft 344 kts 234°
2026-04-29 22:24 -8.37529 115.75021 13407 ft 345 kts 236°
2026-04-29 22:24 -8.38847 115.72993 12927 ft 345 kts 236°
2026-04-29 22:24 -8.40167 115.70969 12454 ft 345 kts 236°
2026-04-29 22:25 -8.41550 115.69019 12077 ft 340 kts 229°
2026-04-29 22:25 -8.43268 115.67464 11857 ft 329 kts 211°
2026-04-29 22:25 -8.45293 115.66399 11675 ft 318 kts 202°
2026-04-29 22:25 -8.47286 115.65559 11570 ft 306 kts 200°
2026-04-29 22:26 -8.49239 115.64748 11419 ft 297 kts 201°
2026-04-29 22:26 -8.51117 115.63918 11127 ft 294 kts 202°
2026-04-29 22:26 -8.52997 115.63039 10782 ft 293 kts 203°
2026-04-29 22:26 -8.54835 115.62152 10461 ft 292 kts 204°
2026-04-29 22:27 -8.56655 115.61266 10151 ft 289 kts 204°
2026-04-29 22:27 -8.58461 115.60386 9785 ft 290 kts 204°
2026-04-29 22:27 -8.60270 115.59508 9473 ft 287 kts 204°
2026-04-29 22:27 -8.62054 115.58534 9122 ft 288 kts 212°
2026-04-29 22:28 -8.63506 115.57165 8767 ft 289 kts 232°
2026-04-29 22:28 -8.64586 115.55459 8424 ft 289 kts 239°
2026-04-29 22:28 -8.65573 115.53685 8112 ft 287 kts 240°
2026-04-29 22:28 -8.66561 115.51939 7708 ft 287 kts 238°
2026-04-29 22:29 -8.67581 115.50214 7304 ft 284 kts 238°
2026-04-29 22:29 -8.68612 115.48518 6879 ft 283 kts 237°
2026-04-29 22:29 -8.69635 115.46851 6463 ft 281 kts 237°
2026-04-29 22:29 -8.70667 115.45166 6014 ft 281 kts 237°
2026-04-29 22:30 -8.71686 115.43497 5641 ft 277 kts 237°
2026-04-29 22:30 -8.72685 115.41854 5413 ft 268 kts 237°
2026-04-29 22:30 -8.73581 115.40241 5232 ft 259 kts 245°
2026-04-29 22:30 -8.74064 115.38514 4929 ft 255 kts 263°
2026-04-29 22:31 -8.74134 115.36740 4576 ft 252 kts 270°
2026-04-29 22:31 -8.74130 115.34982 4168 ft 253 kts 269°
2026-04-29 22:31 -8.74160 115.33204 3735 ft 253 kts 268°
2026-04-29 22:31 -8.74231 115.31434 3154 ft 260 kts 266°
2026-04-29 22:32 -8.74318 115.29588 2508 ft 259 kts 267°
2026-04-29 22:32 -8.74395 115.27842 2064 ft 243 kts 266°
2026-04-29 22:32 -8.74470 115.26166 1636 ft 230 kts 267°
2026-04-29 22:32 -8.74534 115.24616 1277 ft 217 kts 268°
2026-04-29 22:33 -8.74591 115.23141 1001 ft 200 kts 268°
2026-04-29 22:33 -8.74643 115.21795 741 ft 187 kts 268°
2026-04-29 22:33 -8.74695 115.20519 503 ft 173 kts 268°
2026-04-29 22:33 -8.74747 115.19356 309 ft 156 kts 268°
2026-04-29 22:34 -8.74800 115.18300 99 ft 148 kts 269°
2026-04-29 22:34 -8.74834 115.17281 15 ft 135 kts 268°
2026-04-29 22:34 -8.74867 115.16540 19 ft 78 kts 268°
2026-04-29 22:34 -8.74887 115.16151 18 ft 35 kts 265°
2026-04-29 22:35 -8.74895 115.16000 17 ft 12 kts 268°
2026-04-29 22:35 -8.74898 115.15919 16 ft 16 kts 268°
2026-04-29 22:35 -8.74906 115.15756 16 ft 30 kts 268°
2026-04-29 22:35 -8.74916 115.15540 18 ft 21 kts 269°
2026-04-29 22:36 -8.74904 115.15433 19 ft 10 kts 302°
2026-04-29 22:36 -8.74866 115.15404 19 ft 5 kts 340°
2026-04-29 22:36 -8.74834 115.15399 19 ft 4 kts 359°
2026-04-29 22:36 -8.74800 115.15399 18 ft 5 kts
2026-04-29 22:37 -8.74767 115.15421 16 ft 6 kts 48°
2026-04-29 22:37 -8.74752 115.15466 16 ft 6 kts 85°
2026-04-29 22:37 -8.74748 115.15514 15 ft 9 kts 86°
2026-04-29 22:37 -8.74743 115.15640 14 ft 23 kts 86°
2026-04-29 22:38 -8.74733 115.15804 13 ft 22 kts 87°
2026-04-29 22:38 -8.74728 115.15953 15 ft 19 kts 88°
2026-04-29 22:38 -8.74722 115.16080 18 ft 16 kts 88°
2026-04-29 22:38 -8.74718 115.16180 22 ft 12 kts 88°
2026-04-29 22:39 -8.74715 115.16256 23 ft 9 kts 87°
2026-04-29 22:39 -8.74712 115.16314 24 ft 7 kts 88°
2026-04-29 22:39 -8.74710 115.16362 23 ft 6 kts 87°
2026-04-29 22:39 -8.74708 115.16400 23 ft 4 kts 86°
2026-04-29 22:40 -8.74704 115.16433 23 ft 4 kts 63°
2026-04-29 22:40 -8.74685 115.16447 23 ft 2 kts
2026-04-29 22:40 -8.74669 115.16446 24 ft 1 kts 356°
2026-04-29 22:40 -8.74633 115.16444 25 ft 7 kts 358°
2026-04-29 22:41 -8.74599 115.16442 25 ft 2 kts 357°
2026-04-29 22:41 -8.74589 115.16441 25 ft 0 kts 357°